ECMWFFLT1_sfc_dewp_096.txt.gz
Dewpoint
60 59 60 60 61 61 60 61 61 62 63 63 63 63 64 64 64 64 63 62 62 62 64 64 64 64 64 64 64 64 64 64 63 62 62 62 61 61 62 61 61 61 61 60 60 58 56 55 57 61 62 62 62 63 63 63 62 62 61 62 61 61 61
59 59 59 59 58 59 58 59 59 60 61 61 62 62 62 62 63 63 63 63 63 63 63 64 64 64 64 63 63 63 63 63 64 63 63 62 62 61 61 61 61 61 61 61 60 60 57 56 56 57 58 61 62 62 62 63 63 63 62 61 61 62 61
57 57 57 56 57 57 57 58 58 59 60 61 61 61 61 61 62 63 63 62 62 63 64 63 63 63 63 63 63 63 63 62 63 63 63 63 63 63 62 61 60 60 60 59 59 59 59 59 56 57 57 58 58 60 62 62 62 63 62 62 62 62 61
56 55 55 55 56 56 56 56 57 58 59 59 60 60 60 60 61 62 62 62 63 63 63 63 63 63 63 63 63 63 63 63 63 63 63 63 63 62 61 61 60 60 59 58 58 59 58 57 57 57 57 58 59 59 61 62 62 62 63 63 63 62 62
54 54 54 54 55 55 55 55 56 57 57 58 59 59 59 59 60 60 61 62 62 62 62 62 63 63 63 63 63 63 63 63 63 63 63 62 62 62 62 62 61 61 61 60 60 60 59 58 58 57 58 58 59 59 60 62 63 63 63 62 62 62 62
53 53 53 53 54 54 55 55 55 55 56 56 57 57 57 58 59 59 60 61 60 60 59 59 60 61 62 63 63 63 63 63 63 63 62 62 62 62 62 62 62 61 61 62 61 60 60 60 59 58 59 59 57 58 60 61 60 62 62 62 62 62 62
53 52 52 52 52 52 52 52 52 52 53 54 53 54 55 56 56 58 59 58 55 54 54 55 56 56 57 59 61 62 62 63 63 62 62 62 62 62 62 61 61 62 62 62 61 61 60 60 59 58 58 58 58 58 59 59 60 60 61 62 62 62 62
52 51 51 51 50 50 50 50 50 50 50 51 52 52 51 52 53 55 56 54 52 52 52 53 53 53 54 55 56 57 59 60 59 61 62 62 61 62 62 62 61 62 62 62 62 61 61 61 60 59 58 56 57 57 57 58 59 60 59 61 62 62 62
52 50 50 50 49 49 49 49 49 49 50 49 50 50 50 50 51 51 53 52 50 50 49 49 50 51 51 53 53 53 54 54 54 56 58 60 61 62 62 62 62 62 62 62 62 62 62 62 61 61 60 58 56 54 57 56 57 58 60 60 62 63 62
49 49 49 48 48 48 49 48 48 49 49 49 49 50 49 49 49 50 50 51 48 48 47 47 47 47 48 50 50 51 52 51 52 52 54 56 58 61 62 62 62 62 62 62 62 62 62 62 62 62 61 60 59 56 55 55 56 56 58 60 60 61 63
49 49 49 48 48 48 48 48 48 47 47 48 48 49 48 48 48 48 48 49 47 46 45 45 45 44 45 46 46 48 48 49 50 51 52 53 54 56 59 61 62 61 62 62 62 62 62 62 62 61 61 61 60 58 57 55 56 58 58 60 61 61 62
49 49 49 49 49 48 47 47 47 47 47 48 47 48 48 47 47 47 47 48 46 45 44 44 44 43 43 44 44 45 45 45 46 47 48 50 51 53 54 55 59 61 62 62 62 62 62 62 62 62 61 61 60 60 58 58 55 58 59 58 60 62 62
48 48 49 48 48 49 48 47 47 46 46 47 47 47 46 46 46 46 46 46 46 44 43 43 43 43 43 43 43 43 43 44 44 44 46 47 48 49 50 51 53 55 59 61 62 61 62 62 62 61 61 61 61 60 60 58 57 56 59 60 60 61 62
46 47 47 48 48 48 48 48 47 45 45 45 45 46 45 45 45 45 45 45 45 44 42 42 42 42 42 42 42 42 42 43 42 43 45 45 46 47 48 48 49 51 53 55 59 61 62 62 62 61 61 61 61 61 60 59 57 57 59 60 60 60 62
45 45 46 46 47 47 47 48 48 45 44 44 44 44 44 44 44 44 43 43 43 42 41 41 41 41 41 41 41 42 42 42 42 42 43 44 44 45 47 47 48 49 50 52 53 55 59 61 61 61 61 61 61 60 61 59 58 57 57 59 59 60 61
44 44 44 45 45 45 45 46 47 45 43 43 43 44 44 43 43 43 43 43 42 41 40 40 40 40 40 40 40 41 42 42 42 42 42 43 43 44 45 46 47 48 49 50 51 52 54 56 60 61 61 61 61 61 61 61 59 58 57 58 60 59 60
44 44 43 44 44 44 44 45 46 43 43 43 42 43 43 43 43 42 42 41 41 40 39 39 39 39 39 39 39 40 40 41 42 42 42 43 43 44 45 45 46 47 48 48 49 50 52 54 56 58 60 61 61 61 61 61 60 59 59 58 59 59 60
44 44 43 43 43 43 43 43 44 43 42 41 41 41 42 42 42 41 41 40 40 40 39 39 39 38 39 39 39 40 40 41 42 42 43 43 45 44 45 45 45 46 47 47 48 49 50 51 52 54 55 58 60 61 61 61 61 61 59 58 59 60 60
44 44 44 43 43 43 42 42 42 42 42 41 40 41 40 40 40 39 39 39 40 39 39 39 38 38 38 38 39 39 40 40 41 42 43 43 44 45 45 45 46 46 46 47 48 49 50 50 50 51 52 54 56 59 60 61 61 60 60 60 59 59 59
45 44 44 44 44 43 42 42 41 41 42 41 40 40 40 39 40 39 39 39 39 39 39 39 38 38 38 38 38 39 39 40 41 42 43 44 44 45 45 46 46 46 46 47 48 49 49 48 49 50 51 51 52 53 55 59 60 60 60 59 59 59 59
43 43 43 43 43 43 43 43 42 41 41 40 40 39 39 39 39 39 39 39 39 39 38 38 38 38 38 38 38 38 39 40 41 42 43 43 44 44 44 44 45 45 46 47 47 46 47 47 47 47 48 49 51 52 53 55 57 59 59 59 59 59 59
42 42 42 41 41 42 42 43 43 42 41 40 41 40 39 39 39 38 38 38 38 38 39 39 39 38 38 38 38 38 39 39 40 41 42 42 43 43 43 43 44 44 46 48 46 46 46 46 46 46 46 47 47 48 50 53 55 57 58 58 58 59 59
40 40 40 40 40 41 41 41 41 41 41 41 40 40 39 39 38 38 38 38 38 38 38 39 40 39 39 38 38 39 39 39 39 40 41 41 42 42 42 42 43 46 45 45 45 44 43 43 44 44 46 46 46 46 47 49 52 55 57 57 58 58 57
39 39 40 40 40 40 40 40 40 39 40 40 40 40 39 38 38 38 38 38 37 38 38 39 38 37 37 38 38 38 38 39 39 39 39 40 40 41 41 41 41 43 44 44 44 43 42 42 41 42 42 43 44 44 44 45 48 52 55 56 58 58 58
38 39 39 39 39 39 39 39 38 38 38 39 39 39 38 38 38 38 38 38 38 38 38 39 37 37 37 37 38 38 38 38 39 39 38 38 39 40 40 40 40 41 42 43 43 42 41 41 41 40 40 40 40 41 41 43 45 48 51 54 56 58 58
38 38 38 38 38 38 38 37 38 38 37 39 38 37 37 38 38 38 38 37 38 37 37 38 37 37 37 37 37 38 38 38 38 38 38 38 39 39 39 40 40 40 41 44 44 40 40 40 40 40 40 41 41 40 39 39 40 45 50 52 54 57 58
37 37 37 37 37 37 37 37 37 38 37 37 37 37 37 37 37 37 38 37 38 37 37 38 37 37 37 37 36 37 37 37 38 38 38 38 39 39 39 39 39 39 40 40 39 39 39 38 38 39 40 41 42 42 42 41 41 41 45 50 53 54 57
37 37 37 37 37 36 36 36 36 37 36 36 36 36 36 36 37 37 37 37 38 37 37 38 37 37 37 36 37 37 37 37 37 37 37 38 38 39 38 39 39 39 39 39 39 39 38 38 38 39 40 41 42 42 43 44 45 48 50 50 51 53 56
36 36 36 36 36 35 35 35 36 37 37 35 36 36 36 36 36 36 36 37 37 37 37 37 37 37 37 36 37 37 36 36 36 36 37 37 38 38 38 38 39 38 38 38 39 38 38 38 38 39 40 42 43 43 43 44 43 44 49 55 55 54 55
36 35 35 35 35 35 35 35 35 37 34 35 35 35 36 35 36 36 36 36 37 37 36 37 37 37 37 36 37 36 36 35 35 36 36 37 37 38 37 38 38 38 37 37 38 36 36 38 38 39 41 43 44 43 43 45 43 42 42 44 46 47 48
36 35 35 35 35 35 35 35 35 36 34 34 34 34 37 35 35 36 36 36 37 37 36 37 37 37 37 36 37 36 35 35 35 35 36 36 37 37 37 40 41 37 37 37 37 36 36 38 38 39 41 42 43 44 45 47 49 51 46 45 45 45 45
35 35 35 35 35 35 35 35 36 34 34 34 34 34 37 35 34 35 35 36 38 36 36 37 37 37 37 36 37 36 35 35 35 35 35 36 36 36 36 38 39 38 38 37 36 36 36 38 38 39 41 41 42 43 45 46 50 52 54 53 52 51 50
37 35 34 34 35 35 36 34 34 33 33 33 33 33 34 34 34 34 35 35 36 36 36 37 37 37 37 37 37 36 35 35 35 35 35 35 35 35 36 36 37 37 36 35 35 35 36 36 38 40 40 39 40 41 44 47 48 48 52 52 52 52 52
35 35 35 35 36 35 35 34 34 33 33 33 32 33 33 34 34 34 34 35 35 35 37 37 37 36 36 36 36 36 35 35 35 35 34 35 35 35 35 36 36 37 35 35 35 35 36 36 37 40 39 39 39 40 42 46 46 46 48 47 47 47 47
38 37 37 35 33 33 34 34 35 33 33 32 32 32 33 34 33 33 34 34 35 35 37 38 36 36 36 36 36 36 36 35 35 35 35 34 34 35 35 35 36 37 35 35 35 36 36 36 37 40 38 36 37 38 44 45 45 45 45 45 45 45 45
37 38 37 36 33 33 33 34 33 34 33 32 32 32 33 33 33 33 33 34 35 35 35 36 37 36 36 35 35 35 35 35 35 36 35 34 35 35 35 36 37 37 35 35 35 35 36 36 37 37 36 36 37 38 41 44 44 44 44 43 43 42 43
35 35 37 36 36 34 34 34 34 34 33 33 32 32 33 33 33 33 33 33 34 35 35 36 36 36 36 35 35 35 35 35 35 35 35 35 35 35 35 36 36 35 35 35 35 35 36 36 36 35 36 36 37 39 41 41 42 43 42 41 42 42 42

ECMWFFLT1_sfc_dewp_102.txt.gz
Dewpoint
61 61 62 62 63 62 62 62 63 62 62 61 62 62 62 62 63 64 64 65 64 64 64 64 63 63 63 63 64 64 63 63 63 63 62 61 61 61 63 64 64 63 64 64 61 59 59 56 56 59 63 63 64 63 63 62 62 62 63 64 62 62 64
61 60 60 60 61 61 61 61 61 61 61 61 61 61 61 61 62 63 63 62 62 62 61 62 62 63 63 64 64 63 63 63 63 63 62 61 61 61 61 62 62 61 62 64 63 63 60 59 55 56 58 63 64 64 65 63 62 62 62 62 62 63 64
60 60 60 60 61 61 61 60 60 60 60 60 60 59 60 61 61 60 60 60 61 61 60 60 60 61 61 62 62 63 64 63 64 63 63 62 62 62 62 61 60 60 60 60 62 62 60 60 58 58 59 58 60 61 61 63 63 63 61 62 63 63 63
60 60 60 59 59 59 59 58 59 58 58 58 58 59 59 59 60 59 59 58 59 59 58 58 58 58 60 61 61 62 62 61 61 62 62 62 62 62 62 61 61 59 61 59 58 59 60 58 58 58 58 58 61 59 61 59 60 60 60 61 61 62 63
58 58 58 57 57 57 57 56 56 56 56 56 56 56 57 57 58 57 58 57 56 56 55 56 56 56 57 58 59 59 59 60 60 59 61 61 61 60 61 61 61 61 61 60 59 60 59 58 58 57 57 57 58 56 57 60 59 59 60 59 59 60 62
57 56 56 55 55 54 54 54 54 53 54 54 54 54 55 56 56 56 56 55 55 55 55 54 54 55 56 56 57 57 57 57 57 58 58 59 60 59 58 59 59 60 61 63 62 60 61 61 60 58 58 58 57 57 57 58 57 57 59 60 60 60 60
54 54 54 53 54 53 53 53 53 53 53 54 53 54 54 54 55 55 55 54 54 54 53 54 54 54 55 54 56 55 55 55 55 56 56 58 58 58 57 57 58 58 59 61 61 62 60 61 58 59 58 58 59 57 58 55 55 55 56 58 59 60 60
53 52 52 52 53 53 52 53 53 53 52 52 52 53 53 53 54 53 53 52 52 52 52 52 52 53 53 53 52 53 53 53 54 54 55 56 55 56 57 56 56 56 57 58 59 61 61 61 59 59 60 57 56 57 56 55 54 55 55 59 60 59 62
52 52 51 51 52 52 52 52 52 52 52 52 52 52 52 52 52 52 51 50 50 51 51 50 51 51 52 51 50 51 51 51 52 53 53 53 54 54 55 55 55 55 56 56 58 58 59 60 60 60 60 59 56 56 57 56 56 54 55 54 56 57 60
52 52 52 52 51 52 52 52 51 51 51 51 51 51 51 51 50 50 50 50 50 50 50 49 49 50 50 50 50 49 49 49 50 50 51 51 52 52 52 53 53 53 54 55 55 55 56 57 57 58 58 58 59 58 56 55 54 55 55 55 54 56 60
52 52 52 51 51 50 51 51 51 50 50 50 50 50 50 49 49 49 49 48 49 48 48 48 48 48 49 48 49 49 47 49 49 49 50 50 51 51 51 51 52 52 53 53 52 54 54 54 54 55 56 57 59 57 57 56 55 55 56 57 56 55 56
50 50 51 51 50 49 49 49 49 49 50 49 49 49 48 48 48 48 47 46 47 46 46 47 47 47 47 47 48 46 47 47 47 47 49 49 50 50 50 50 51 50 51 52 52 52 53 53 53 52 53 54 55 57 57 56 55 55 57 57 56 57 57
48 49 49 49 48 47 47 48 48 49 49 48 48 47 46 46 46 46 44 44 44 44 43 44 45 46 46 46 46 46 46 46 46 46 47 48 48 48 48 48 49 49 50 50 50 51 50 51 52 51 52 53 53 54 55 55 54 53 56 57 58 57 57
49 48 48 48 48 47 47 48 47 48 47 46 46 46 45 45 43 43 42 42 41 42 42 44 44 44 44 44 45 46 46 45 44 45 45 46 47 47 47 47 47 48 49 49 49 49 49 49 50 50 51 50 50 51 52 53 52 52 54 57 57 57 59
47 47 48 47 47 44 44 45 46 46 46 46 46 44 43 44 43 42 42 41 41 41 41 41 43 43 42 43 44 45 46 44 44 44 45 43 45 46 47 46 46 46 47 47 48 47 47 47 47 47 47 49 48 49 51 51 50 51 51 53 54 55 56
46 47 47 47 46 45 46 46 45 46 45 44 43 43 43 43 42 41 41 41 40 40 40 40 42 42 42 42 42 43 44 43 43 43 42 43 42 44 45 45 45 46 47 47 47 48 48 48 47 46 47 47 48 48 48 49 49 49 49 49 52 52 53
46 46 45 45 46 46 45 44 44 44 43 43 41 43 42 41 41 42 41 40 39 39 40 40 40 40 40 41 42 42 42 43 42 42 41 41 41 42 42 44 45 45 46 46 46 46 46 47 46 46 46 47 47 46 48 49 49 49 48 48 50 49 51
45 45 45 46 46 45 45 44 43 41 43 42 42 42 41 41 41 40 42 39 39 39 39 39 39 39 40 42 42 42 42 41 42 41 41 40 42 42 42 42 43 43 44 44 45 45 44 45 44 45 45 44 45 46 46 46 47 47 47 47 48 50 51
44 45 45 45 46 45 44 44 43 43 41 41 42 41 41 41 39 38 38 38 38 38 38 39 38 38 38 40 42 43 42 41 41 40 38 40 39 41 42 42 42 42 43 44 44 44 44 43 43 43 43 44 43 44 45 45 46 46 46 46 47 47 50
45 45 45 45 45 44 43 43 41 41 41 41 40 40 40 40 41 40 39 38 38 39 39 39 38 39 38 39 41 41 42 41 40 40 40 38 39 41 41 41 43 43 43 43 43 43 42 43 43 42 43 43 42 43 42 43 43 44 45 45 46 47 48
44 43 43 42 42 42 41 42 41 41 41 42 41 39 40 40 40 39 40 39 39 40 39 38 38 38 38 40 41 41 41 41 40 40 40 39 40 40 41 42 42 42 42 42 42 41 42 42 41 41 41 41 41 41 41 41 42 42 43 44 45 45 46
41 41 40 41 41 41 41 41 41 40 41 42 43 41 40 40 39 39 39 40 38 39 40 40 38 38 38 38 41 41 41 40 40 39 39 38 40 40 40 41 41 41 42 44 44 43 42 41 41 40 40 40 40 40 40 40 41 41 41 42 43 45 46
39 40 39 39 39 40 40 41 41 41 40 41 41 41 40 40 38 38 38 38 39 40 39 39 39 38 38 38 40 41 41 39 39 39 39 38 39 39 39 40 41 43 43 43 43 41 41 41 40 40 40 40 40 39 39 40 40 40 41 41 42 43 44
37 37 38 38 39 38 38 40 40 40 41 41 41 41 40 39 39 39 38 38 39 40 39 37 37 37 37 38 40 42 41 40 40 39 38 39 38 39 39 38 39 41 41 41 41 40 39 39 38 38 39 39 40 39 39 39 39 41 41 41 42 43 43
35 36 37 36 36 36 38 38 39 40 41 42 41 42 41 40 39 40 40 39 39 39 38 38 36 37 37 37 38 41 41 40 39 38 37 37 38 38 38 39 39 40 40 40 40 39 39 38 38 38 38 38 39 39 39 40 41 40 41 41 41 42 43
35 35 34 35 36 37 37 38 39 40 41 42 42 41 40 40 40 40 40 38 39 38 37 37 36 37 36 36 37 39 39 39 38 37 36 37 38 38 38 38 39 40 39 41 41 38 37 37 38 38 39 40 40 40 39 38 39 42 41 41 41 42 43
34 34 34 35 36 36 37 38 39 40 40 41 41 41 41 41 40 40 40 39 39 38 37 37 36 36 36 36 36 37 39 39 38 36 37 37 37 37 38 38 38 38 38 38 38 37 37 36 37 38 39 40 41 41 40 39 39 39 41 42 42 42 44
33 33 34 35 36 36 38 38 37 37 38 39 40 39 40 41 41 40 39 39 38 39 38 36 36 36 36 36 36 38 40 39 37 37 37 37 37 37 37 38 38 37 37 37 38 37 36 36 37 38 39 39 39 40 40 40 41 41 41 41 42 42 44
33 33 33 34 34 35 37 38 37 38 38 39 39 39 40 40 40 39 39 39 39 38 38 36 36 36 36 36 36 39 38 38 37 35 35 36 36 36 37 37 37 37 36 37 38 36 36 37 37 37 37 38 38 39 40 40 39 39 41 41 41 42 42
33 33 34 34 34 35 36 37 37 36 36 37 38 38 39 39 39 39 38 38 38 37 38 37 36 36 36 36 37 38 37 36 36 35 35 35 35 35 36 36 36 35 36 36 36 35 36 37 37 37 37 37 37 37 38 39 39 38 39 39 39 39 39
33 34 34 33 35 36 37 37 37 37 35 35 35 37 37 37 38 39 38 37 37 37 37 37 36 36 36 36 37 38 35 36 36 34 33 34 35 34 35 39 38 34 35 36 35 35 35 37 37 37 37 36 36 36 37 38 39 40 39 39 40 40 40
33 34 34 36 37 36 36 37 37 36 34 34 35 35 35 35 37 38 39 38 37 37 36 37 36 35 36 36 37 38 34 35 34 33 31 32 34 34 34 36 39 36 36 36 35 35 35 36 36 37 37 36 36 35 36 37 38 39 40 41 41 42 43
35 35 34 37 37 36 36 37 37 36 35 32 33 34 34 35 36 37 39 39 38 37 36 37 36 35 36 36 36 37 36 34 33 33 31 31 32 34 33 33 34 34 34 34 35 35 35 36 36 37 37 36 36 35 37 38 39 40 41 42 41 42 43
37 36 36 36 37 37 37 38 38 37 36 35 36 36 37 36 37 37 38 38 37 38 36 36 36 36 36 36 36 36 35 36 35 33 30 31 31 32 31 31 33 34 34 34 35 35 35 36 36 37 37 37 37 36 37 39 40 40 40 40 41 42 44
39 40 39 38 38 37 37 37 37 37 37 36 37 37 37 35 34 35 36 37 37 37 37 37 36 36 36 36 36 36 36 36 36 34 30 30 30 31 32 32 33 34 34 34 34 35 35 35 36 37 37 35 35 35 38 39 40 41 40 40 40 41 42
40 40 40 40 38 38 37 37 37 38 37 36 36 35 36 35 35 34 35 35 36 36 37 37 36 36 35 36 36 35 35 35 35 36 32 31 32 31 32 34 34 35 34 34 34 35 35 35 36 36 35 35 36 36 38 40 40 40 40 39 38 39 40
40 40 40 39 37 38 38 36 35 36 35 34 32 32 33 33 32 32 32 33 34 33 35 34 36 35 35 35 35 35 34 35 35 36 35 32 33 30 33 34 34 34 34 34 34 35 34 35 36 35 35 36 36 37 40 39 39 39 39 39 38 38 38

ECMWFFLT1_sfc_dewp_105.txt.gz
Dewpoint
62 63 63 63 63 63 63 63 63 62 62 62 61 60 60 62 62 62 62 62 61 61 59 61 60 59 60 61 62 62 63 63 63 63 62 60 59 59 61 61 61 62 64 64 64 60 57 56 55 57 59 60 61 64 64 64 65 65 66 66 66 62 64
62 61 60 61 61 62 62 62 62 62 62 61 60 60 60 60 60 61 60 59 59 59 58 59 59 58 59 61 61 61 61 61 61 61 61 61 62 61 60 61 61 59 59 60 60 61 59 59 55 56 57 59 60 61 65 65 64 65 64 64 64 67 67
60 60 61 61 62 62 61 61 61 60 59 58 59 59 59 59 59 59 58 58 58 58 57 57 58 57 57 58 59 59 59 60 60 60 60 60 60 60 60 60 60 60 59 59 58 58 58 59 57 55 56 56 56 57 62 66 67 65 64 65 67 65 64
61 61 60 59 60 60 60 59 58 58 58 57 58 58 58 57 58 58 58 57 57 57 55 55 56 56 56 57 58 58 58 58 58 59 60 59 58 58 59 58 58 58 58 58 58 59 59 58 57 56 56 55 55 56 58 58 61 62 62 65 65 65 65
59 59 58 58 58 57 56 56 56 55 56 56 56 56 56 57 57 55 56 56 55 56 55 55 55 55 56 56 57 57 57 57 57 58 58 58 57 57 57 56 56 57 57 58 58 58 59 58 58 57 57 56 56 54 56 58 56 56 58 61 63 64 64
57 57 57 56 55 55 55 55 54 54 54 54 54 54 55 55 55 55 55 54 54 55 55 54 55 54 55 55 56 56 55 55 55 56 56 57 56 56 55 56 55 56 56 57 57 57 57 58 58 56 57 57 56 56 56 56 55 55 55 55 57 62 62
55 55 55 55 55 54 54 54 54 54 54 54 53 53 54 54 54 54 54 53 53 53 52 53 53 53 53 53 54 53 53 54 54 55 55 55 55 55 55 54 55 54 55 56 56 56 55 55 54 55 56 56 57 55 55 53 53 51 52 55 55 59 66
54 53 53 54 54 54 54 54 53 53 53 53 52 53 53 53 53 52 52 52 51 52 52 52 52 52 53 53 52 53 53 53 53 52 52 53 53 53 54 53 53 53 54 54 54 54 54 54 54 54 54 53 53 53 53 53 53 53 52 53 53 55 58
53 53 52 52 53 53 53 52 52 53 53 52 52 52 52 52 52 51 51 51 50 50 50 50 50 51 52 51 51 52 51 51 52 51 51 52 52 52 52 52 52 52 53 53 53 53 53 53 54 53 53 52 51 49 51 51 52 52 53 53 53 53 56
53 52 52 52 52 53 53 52 52 52 52 52 51 51 51 50 50 51 50 50 49 48 49 49 49 49 50 49 50 50 49 50 51 50 50 50 51 51 51 51 50 50 51 52 52 52 52 53 52 52 52 51 51 50 49 49 50 51 52 53 54 55 54
52 52 52 51 51 52 51 51 51 50 50 50 50 50 50 50 50 49 48 47 47 46 47 47 48 48 48 47 49 48 48 50 49 49 49 48 49 50 50 50 50 49 50 50 50 51 51 51 51 51 51 51 51 50 50 49 49 50 51 52 52 52 54
51 51 50 51 51 50 50 50 50 50 50 50 49 49 49 48 47 46 46 45 45 44 45 46 46 45 46 46 47 47 47 48 47 48 48 48 48 48 48 48 48 48 49 49 49 50 50 49 49 49 49 50 50 50 49 49 48 49 50 51 52 51 51
49 49 50 50 49 49 48 49 49 48 48 48 49 48 46 45 44 44 43 42 42 43 43 44 45 44 45 46 47 46 46 46 45 45 46 47 47 47 46 45 46 47 47 47 48 48 48 48 49 48 48 48 47 49 49 48 47 47 49 49 50 50 50
49 48 49 49 49 48 49 48 47 48 48 48 47 46 45 43 42 43 41 41 40 41 41 43 44 44 44 45 46 46 45 44 43 44 45 45 44 45 44 43 43 45 47 47 47 47 46 46 47 46 46 46 46 47 47 47 46 46 47 49 49 48 50
48 48 48 48 47 46 46 47 48 47 47 45 45 44 43 44 42 42 41 39 39 39 39 41 42 42 42 44 45 45 46 44 43 43 43 42 42 43 45 42 42 43 45 45 45 44 43 44 43 43 44 44 44 45 46 45 45 45 45 47 47 48 47
48 48 47 47 47 47 47 47 46 45 44 44 44 43 43 43 42 40 39 40 38 38 39 39 41 41 42 43 43 44 44 43 43 43 42 41 40 42 42 42 42 43 44 44 44 44 44 43 43 42 43 43 43 43 44 44 44 44 44 44 45 45 46
47 46 47 47 48 47 45 45 44 45 44 43 42 43 43 41 41 41 39 38 37 38 38 38 39 39 40 42 43 42 42 42 42 42 41 40 40 41 40 40 41 43 44 43 42 42 42 43 42 42 42 42 42 42 43 43 43 43 42 42 43 43 45
47 47 47 46 47 46 46 45 44 42 43 42 42 42 41 40 40 39 40 38 37 37 37 37 37 39 40 42 43 43 42 41 42 41 41 41 41 40 40 40 41 42 42 42 42 41 41 42 40 41 41 41 41 41 41 41 41 42 41 41 42 43 44
46 47 47 46 46 45 44 43 43 43 42 41 41 41 41 41 38 37 37 37 37 36 37 37 37 38 39 41 43 43 42 42 41 40 40 40 39 39 40 41 41 41 40 41 41 40 41 41 40 40 40 40 39 40 41 41 41 41 41 41 41 41 43
46 46 45 45 45 43 43 43 42 41 42 41 41 41 40 40 41 39 37 37 37 37 37 38 38 39 39 40 42 41 41 41 40 41 40 39 38 39 39 39 40 40 40 40 40 40 40 41 40 40 40 40 39 40 40 40 40 40 40 40 40 41 41
44 43 43 43 42 43 42 42 42 43 43 42 41 40 40 41 40 39 39 38 37 38 37 37 37 37 38 40 42 41 41 41 41 41 41 39 39 38 38 38 39 39 39 39 40 40 40 40 40 39 39 39 39 39 39 39 39 39 39 40 40 40 41
42 41 41 41 42 42 42 43 42 42 43 43 43 41 40 40 39 38 38 39 37 38 38 38 38 38 38 39 42 41 41 41 41 40 39 38 38 37 37 38 39 40 41 43 43 42 41 40 40 38 38 38 39 39 38 39 39 39 39 39 39 40 40
39 40 40 41 41 42 41 42 43 42 41 41 41 41 40 40 38 38 38 37 38 39 38 38 38 38 38 39 40 43 42 41 40 39 39 38 38 37 38 38 40 42 43 42 41 41 40 40 40 39 38 38 38 38 38 38 39 39 39 39 39 39 39
37 38 40 40 40 39 40 41 41 42 42 42 42 41 41 40 40 39 37 37 37 38 38 36 38 37 37 38 40 42 42 40 39 39 38 37 36 37 37 37 39 40 40 40 38 39 38 38 38 38 39 39 39 39 39 39 39 40 40 39 39 39 39
36 37 37 37 37 37 39 40 41 41 42 42 42 42 42 41 41 41 39 37 37 37 37 38 36 37 36 37 38 40 42 40 40 38 37 36 36 37 37 37 38 39 38 38 38 38 38 38 38 38 38 38 39 39 39 41 40 39 39 39 39 39 39
34 36 36 36 38 38 41 40 41 40 41 42 42 41 41 41 41 41 40 38 37 35 35 37 36 36 36 36 36 39 40 40 38 37 36 35 35 36 37 37 37 37 35 40 39 36 36 37 38 39 39 40 39 39 38 37 38 41 40 40 39 39 39
34 35 36 37 38 37 38 38 41 41 41 42 41 41 41 42 41 40 40 40 39 36 35 36 36 36 36 36 36 37 40 39 38 37 36 35 35 36 36 36 35 35 36 37 37 36 36 37 37 38 39 39 39 39 39 38 38 38 40 39 39 38 39
33 34 36 37 38 38 38 39 39 39 40 40 40 40 40 41 41 40 40 40 40 37 36 36 35 35 35 35 35 39 40 40 38 38 36 35 34 35 36 36 35 34 35 36 37 36 36 36 37 38 38 38 38 38 39 39 39 39 39 39 39 39 39
33 32 33 35 37 37 38 38 39 40 40 39 40 40 40 40 40 40 40 39 39 37 34 35 35 35 35 35 35 40 38 39 37 36 35 34 33 33 34 35 35 35 35 36 37 36 36 36 37 37 37 37 37 38 39 39 39 38 40 39 39 39 39
33 33 33 34 35 37 38 37 37 37 38 39 38 38 39 40 39 39 38 40 40 37 34 35 35 35 35 35 36 39 37 36 36 35 35 34 33 32 38 35 34 33 34 34 35 34 35 37 37 37 37 37 37 37 38 39 38 38 38 38 38 38 38
32 32 33 34 36 37 37 36 36 36 36 36 36 37 38 39 39 38 36 37 39 39 36 36 35 36 35 35 36 38 34 35 36 35 33 34 33 32 39 39 37 32 33 33 35 34 35 37 37 37 37 37 37 37 37 38 38 39 38 38 38 38 38
32 33 34 36 38 37 37 37 36 36 35 35 36 35 36 37 38 39 39 38 39 39 38 38 36 35 36 36 36 37 35 34 36 36 33 31 32 32 32 38 40 36 36 35 34 34 34 36 37 37 37 37 36 36 37 38 38 38 38 39 39 39 39
35 35 35 36 37 37 36 36 36 35 34 33 34 34 35 37 37 38 40 40 39 38 38 39 37 35 36 36 36 37 34 33 34 36 35 30 31 31 32 32 34 34 33 33 33 34 34 35 37 38 37 37 37 37 38 38 39 39 40 40 40 40 40
37 37 36 37 37 38 37 37 36 35 35 37 37 36 37 38 38 37 38 38 39 40 39 38 40 35 36 36 36 36 33 34 33 35 35 31 30 31 29 29 33 34 33 33 33 34 34 34 35 39 38 37 38 38 37 39 40 40 41 41 42 42 42
38 38 37 37 38 37 38 38 37 35 34 36 37 37 36 35 35 36 37 37 37 39 38 40 36 35 35 36 36 36 35 34 33 34 35 33 31 32 31 32 32 33 33 33 33 33 34 34 35 37 38 35 36 36 39 39 38 41 41 42 42 41 41
41 40 39 39 37 37 37 37 38 38 37 36 35 35 35 35 35 34 35 33 34 35 37 37 35 34 34 34 35 35 35 35 34 37 34 34 33 33 33 32 32 35 33 33 33 33 34 34 36 36 34 35 36 36 37 37 40 40 41 41 40 40 39
40 40 39 38 38 37 36 36 34 35 34 32 31 31 29 32 32 33 33 32 33 30 32 33 35 34 33 33 34 34 34 34 34 33 34 34 33 33 33 33 33 33 33 33 33 33 33 34 35 34 34 35 35 35 35 35 37 39 40 40 40 39 39

ECMWFFLT1_sfc_dewp_108.txt.gz
Dewpoint
64 64 64 64 65 64 63 63 63 63 61 60 60 59 59 59 60 60 59 59 59 58 58 58 58 58 59 59 60 60 60 59 59 59 58 59 59 59 59 59 59 60 59 60 60 59 58 57 57 58 59 60 60 64 64 64 64 64 65 66 66 66 65
63 63 62 62 63 63 62 62 62 61 60 60 58 58 58 58 59 58 58 57 57 57 57 57 57 57 57 58 58 59 58 58 58 59 58 58 58 58 57 57 57 57 57 57 58 58 58 57 56 56 56 58 59 59 61 62 63 64 64 65 66 66 65
63 62 62 62 62 63 61 61 61 61 59 58 57 57 58 56 57 56 56 56 56 57 57 56 56 56 57 57 58 58 58 57 58 58 57 58 57 57 56 56 55 55 55 55 55 55 55 56 56 55 55 55 55 57 58 59 60 64 64 64 65 64 65
62 62 61 61 61 61 59 59 59 59 57 56 56 56 56 56 55 55 56 55 56 57 56 55 55 55 56 57 58 57 56 57 56 56 56 56 56 55 55 54 54 54 54 54 54 54 54 54 53 53 53 54 54 54 56 56 57 56 56 62 64 65 65
60 60 60 59 58 58 58 58 58 56 55 55 55 55 56 55 55 56 56 56 55 55 55 55 55 54 54 56 56 55 55 55 55 55 56 55 55 54 54 54 54 54 54 54 54 55 54 54 53 52 51 52 52 52 53 54 54 55 55 54 60 63 64
60 59 59 58 57 57 57 56 55 54 54 53 53 53 54 55 56 55 55 54 54 54 54 53 54 54 54 55 54 54 54 53 54 54 55 54 54 52 52 54 53 52 53 54 54 54 53 53 52 51 51 51 50 51 51 51 51 51 51 52 53 62 63
57 57 56 55 56 56 56 55 54 53 52 53 53 53 54 57 55 53 53 53 52 52 52 53 53 53 54 53 53 52 52 52 54 53 53 53 53 52 53 52 51 52 52 53 52 52 51 51 51 51 50 50 50 49 49 48 48 48 49 50 51 52 62
55 55 54 55 55 54 54 54 54 53 52 52 53 54 55 55 54 52 52 52 51 52 51 52 52 52 53 52 52 51 52 52 52 53 52 52 51 51 51 50 51 50 51 50 49 50 50 50 51 50 50 48 47 47 47 47 47 47 47 48 49 50 52
54 54 55 55 54 54 54 53 53 53 52 53 55 54 53 52 52 52 51 50 49 50 50 50 50 51 52 52 52 51 50 51 51 51 51 50 51 51 50 50 49 49 50 49 49 49 49 49 49 50 49 48 47 45 46 46 46 46 47 47 48 49 50
54 53 53 53 53 53 53 53 52 52 53 54 54 53 52 51 51 50 49 49 48 48 49 48 48 49 50 50 50 49 49 50 51 50 50 50 49 50 50 50 50 50 49 49 49 49 49 49 49 48 47 47 48 46 44 43 44 44 45 46 46 47 48
53 53 53 52 52 52 52 52 52 52 51 52 51 51 51 50 49 49 48 47 47 47 47 47 47 47 48 49 49 48 48 49 49 48 49 48 49 49 49 48 48 48 47 47 47 47 47 48 47 46 46 45 45 44 44 44 43 44 44 45 45 45 46
52 51 51 51 52 50 50 51 51 51 51 51 50 50 48 47 47 47 47 45 45 45 46 46 47 47 48 48 48 48 48 47 47 47 48 48 47 47 46 46 46 46 46 46 45 45 46 45 44 43 43 44 44 43 43 43 41 42 43 43 43 44 44
49 50 51 51 50 49 47 48 49 50 51 50 49 47 45 45 44 43 43 43 42 43 43 45 45 45 47 47 47 47 46 46 45 44 45 45 45 46 44 43 44 44 45 44 43 43 43 43 43 42 42 42 41 42 42 41 40 40 41 42 42 42 42
50 49 49 50 49 49 49 48 48 49 48 48 47 46 44 43 42 42 40 40 39 41 41 43 44 45 45 46 46 46 44 44 43 43 43 43 43 43 43 41 42 43 43 42 42 41 41 40 40 41 41 41 40 40 40 40 39 39 40 41 41 41 42
49 49 50 49 49 47 48 49 49 47 47 46 46 44 43 44 42 41 40 38 39 38 39 40 42 43 43 46 45 46 45 43 43 42 44 41 42 43 43 42 42 42 42 41 41 39 39 39 38 39 39 39 39 39 40 39 39 39 38 39 40 40 40
49 49 48 48 48 47 48 47 46 46 45 45 45 44 44 42 41 39 38 38 37 38 38 39 41 42 44 44 43 44 45 43 43 42 41 41 40 41 41 42 41 41 42 40 40 40 39 38 38 38 38 38 38 38 38 38 38 38 37 38 39 39 39
48 48 48 48 47 47 46 46 46 46 44 44 42 44 42 40 40 40 38 37 37 37 38 38 39 40 42 44 43 42 42 43 42 41 41 40 40 40 40 40 40 40 40 39 39 39 38 38 38 38 38 38 38 37 38 38 38 38 38 38 38 38 39
47 48 48 48 47 47 46 46 45 42 44 44 43 43 41 40 39 38 39 36 36 36 37 37 38 39 41 43 44 43 41 42 42 41 42 40 40 39 39 39 39 39 39 39 38 37 37 38 37 38 37 37 37 38 38 38 38 38 38 37 38 39 39
47 47 47 46 46 46 46 45 44 44 42 42 42 42 41 39 37 36 35 35 36 36 36 37 37 38 39 41 43 44 44 43 42 41 41 40 39 39 39 39 39 39 39 38 37 37 38 37 37 37 37 37 37 37 37 37 38 38 37 37 37 38 38
46 46 46 46 46 45 44 45 43 42 43 42 42 41 40 40 40 37 36 36 36 36 36 37 37 38 39 40 41 43 43 42 42 42 41 39 39 39 38 39 39 39 39 38 38 38 38 38 38 37 37 37 37 37 37 37 37 37 37 37 38 38 38
46 45 45 45 44 44 44 44 44 44 43 43 42 40 40 40 40 38 38 36 36 37 36 36 37 37 38 39 41 42 43 43 42 41 41 39 40 38 38 39 39 38 38 38 39 40 38 38 37 37 37 37 37 37 37 38 38 38 38 38 38 37 37
44 44 43 43 44 44 43 44 43 43 43 44 44 41 40 39 38 37 36 37 36 36 36 37 38 37 38 38 39 42 43 43 41 40 39 39 38 38 38 39 39 38 39 40 43 42 40 39 38 37 37 37 38 38 37 38 38 38 38 37 37 37 37
42 43 43 43 43 43 43 44 43 43 42 42 42 42 40 39 36 36 35 35 36 37 36 37 38 38 38 38 39 41 42 43 41 41 39 40 39 38 38 38 40 41 43 42 41 39 38 39 39 39 38 38 38 38 38 38 38 38 37 37 37 37 37
40 40 42 42 43 42 42 43 43 43 43 43 44 43 42 39 37 36 34 35 35 36 37 36 37 36 37 38 39 40 42 44 43 42 39 41 38 38 38 37 40 38 39 40 39 38 38 38 38 38 39 40 41 39 39 39 38 38 38 38 38 37 37
38 39 39 39 40 41 42 42 42 43 44 44 43 43 43 42 40 39 37 35 35 35 35 38 35 36 36 36 38 39 42 43 43 40 41 40 38 39 38 38 38 38 37 39 37 35 36 37 37 38 38 39 39 39 39 39 38 37 38 38 37 36 36
37 38 38 39 40 41 41 41 41 41 42 43 44 43 42 43 42 42 39 36 34 34 33 36 35 36 35 36 36 38 43 44 42 42 40 40 40 40 37 38 37 38 37 39 38 35 34 34 37 39 39 39 39 39 37 37 38 40 39 37 37 36 37
36 37 39 39 41 40 40 41 42 43 43 42 42 42 43 43 43 42 40 37 35 34 34 36 35 35 35 35 35 37 44 45 44 42 38 40 41 38 37 37 36 36 36 37 36 36 35 34 35 37 37 37 37 39 38 38 38 38 38 38 38 37 38
36 38 38 39 40 39 41 42 42 43 43 42 42 41 41 42 43 42 41 38 35 35 36 35 35 35 35 35 35 39 43 44 43 43 41 41 40 38 37 37 36 35 35 35 37 36 35 35 35 37 37 38 37 37 38 38 38 38 39 39 38 38 39
38 37 37 38 38 38 40 41 41 42 42 42 42 41 41 42 42 42 41 39 37 36 36 35 35 35 35 35 35 41 39 40 40 40 41 41 38 38 37 37 37 33 33 34 36 35 36 36 35 36 37 37 37 37 37 39 38 38 39 39 39 39 39
37 37 37 37 37 39 40 40 41 42 41 41 40 40 41 40 40 41 41 41 39 38 37 36 35 35 35 35 36 39 37 36 38 38 38 39 39 39 39 38 34 33 33 32 35 34 34 36 35 35 36 37 36 36 36 37 38 38 38 38 38 38 38
34 36 37 37 38 39 40 41 40 42 41 40 40 41 40 38 37 38 38 40 43 40 38 37 35 35 35 35 36 37 35 34 36 37 37 38 40 38 40 42 37 33 32 32 34 33 34 36 35 35 36 36 35 35 35 37 38 39 38 38 38 39 39
35 36 36 38 39 38 39 39 40 41 41 40 41 40 40 40 40 40 40 40 39 43 40 39 35 35 35 35 36 36 34 33 33 35 36 36 37 39 40 41 40 36 34 34 33 33 34 35 35 35 37 35 34 34 34 36 37 38 37 38 39 40 40
38 37 37 39 40 41 41 42 43 42 42 37 36 37 39 41 42 41 42 42 42 42 40 38 37 35 36 35 36 37 34 32 32 33 35 35 35 35 36 34 36 34 33 33 33 33 33 34 34 36 38 35 34 33 34 36 38 36 37 39 39 40 41
39 39 39 39 40 40 40 41 42 41 41 40 41 42 41 41 41 42 44 43 42 42 42 41 39 34 35 35 36 36 34 33 31 32 33 34 34 34 34 34 34 35 34 33 33 33 34 34 34 38 38 35 34 36 36 36 35 37 36 39 40 40 41
40 41 40 41 42 41 41 41 41 41 39 43 44 44 42 41 40 40 41 42 42 41 39 41 40 35 34 34 35 36 37 35 36 35 33 33 34 34 34 34 34 35 35 34 34 33 34 34 34 40 38 35 34 34 35 35 34 34 36 37 39 40 40
40 40 40 41 41 41 43 42 42 42 41 42 42 42 43 42 42 41 41 40 41 41 39 40 35 34 33 33 34 34 34 34 35 39 33 34 35 34 34 34 36 37 35 34 34 34 33 34 35 35 33 34 34 33 35 32 33 34 35 36 37 38 39
40 41 40 40 40 41 41 42 42 42 41 40 40 40 39 39 41 41 39 38 37 37 39 38 35 34 34 32 33 33 33 33 33 34 35 36 34 34 33 34 35 34 34 34 34 33 32 33 32 31 31 33 33 34 30 30 30 32 34 35 37 38 39

ECMWFFLT1_sfc_dewp_111.txt.gz
Dewpoint
62 62 63 63 63 62 61 60 59 58 57 57 57 57 56 56 57 56 56 56 56 57 58 56 56 56 56 57 58 57 57 57 57 56 55 55 55 54 55 55 55 55 55 56 56 55 55 53 52 54 56 55 54 57 56 55 56 55 56 60 64 65 65
63 62 62 62 61 61 60 60 58 57 56 56 56 55 55 55 56 56 55 55 55 56 57 55 55 55 55 56 55 55 55 55 55 56 55 54 53 53 53 53 53 53 54 54 54 54 53 52 52 52 51 52 53 55 53 55 53 53 54 54 57 63 65
61 61 61 61 60 60 59 57 56 55 55 55 55 54 54 54 54 55 55 54 54 56 56 54 53 53 54 55 54 54 54 54 54 55 54 54 53 53 53 53 52 51 51 52 52 52 52 52 52 50 51 50 50 50 52 52 52 52 52 53 54 57 59
61 60 60 60 59 59 57 55 54 54 54 54 54 54 54 54 54 56 54 54 55 55 54 53 53 53 54 53 53 53 52 52 53 54 53 53 52 52 52 52 50 51 51 51 50 50 50 49 49 49 50 50 50 49 50 50 50 50 50 50 51 51 56
59 59 58 58 58 57 56 54 54 53 53 53 53 53 54 54 55 53 53 52 53 52 52 52 53 53 53 53 52 52 51 51 52 53 52 51 50 51 50 50 50 51 50 49 49 49 49 49 49 48 48 49 49 48 49 48 49 48 48 49 48 49 54
57 56 55 55 55 54 54 53 52 52 52 52 52 53 53 53 52 51 51 51 51 52 52 51 52 52 52 51 50 51 51 51 51 51 50 50 50 50 49 49 50 50 48 49 49 48 48 48 48 47 47 48 47 47 47 47 46 46 47 47 47 47 49
54 54 54 53 53 53 54 52 52 51 51 52 52 52 53 53 51 51 50 50 50 50 52 51 51 51 52 51 49 49 50 50 50 49 49 49 49 49 49 49 48 49 48 48 48 47 47 47 46 46 45 45 46 45 45 44 43 43 44 45 46 46 48
54 53 53 53 53 52 52 52 52 51 51 52 52 52 52 51 50 50 50 48 49 49 49 48 50 50 50 50 49 49 50 50 48 49 49 48 49 48 47 49 49 47 47 48 48 47 47 46 45 44 43 42 42 42 42 42 41 41 41 42 44 44 43
54 53 53 53 52 53 52 52 51 52 52 52 52 49 50 50 50 48 48 47 47 47 48 48 47 48 49 49 47 47 47 51 48 47 48 47 47 47 47 48 46 45 45 46 45 45 44 43 43 42 42 41 41 39 40 40 40 40 40 40 41 41 41
53 52 51 51 52 52 51 50 50 51 52 52 51 51 50 49 49 47 46 46 46 46 46 47 47 48 48 47 47 46 46 47 48 47 47 45 45 45 45 45 44 44 43 43 43 43 42 42 42 41 41 41 41 40 39 38 38 38 38 40 39 39 41
52 52 51 51 51 51 51 51 51 51 51 50 51 51 48 47 47 49 45 45 45 45 45 46 46 47 47 47 46 46 46 46 45 45 46 45 44 43 44 43 42 42 42 41 42 41 41 40 40 40 40 40 40 39 39 38 37 38 38 39 39 39 39
51 51 52 52 52 51 51 51 51 50 49 50 49 46 46 44 42 42 43 43 43 42 43 44 46 46 46 45 46 44 45 44 43 43 44 44 44 43 42 41 41 41 41 40 40 40 39 39 39 39 39 39 39 38 38 38 36 37 38 38 39 39 39
51 50 50 50 49 49 50 48 48 48 47 48 45 43 42 42 42 40 41 40 41 41 41 42 44 45 46 45 45 44 44 43 43 42 41 42 43 42 41 40 40 40 40 39 39 39 38 38 39 38 38 38 38 38 38 36 36 36 37 38 38 38 39
51 51 50 50 50 49 49 49 48 48 47 46 45 44 42 40 40 40 39 40 39 40 40 41 42 44 45 45 44 44 43 43 41 42 41 41 41 41 41 40 40 40 40 38 38 38 38 38 38 38 38 38 38 38 38 37 36 36 37 38 38 38 39
49 49 49 48 48 48 48 48 47 46 45 45 43 43 42 41 39 39 38 38 38 39 40 40 41 42 43 44 44 45 44 42 41 40 40 40 41 42 40 39 39 40 39 38 37 37 37 37 37 36 37 37 37 38 38 37 36 36 35 36 37 38 38
49 48 47 47 47 46 45 45 46 45 45 45 44 41 41 39 39 38 38 38 38 38 39 39 40 40 42 42 43 42 43 42 41 40 40 40 40 40 39 39 39 39 39 37 37 37 38 37 37 37 36 37 37 37 37 37 36 36 36 36 37 37 37
47 47 46 46 45 46 46 46 45 43 42 41 40 40 39 38 38 37 37 37 37 37 38 38 39 40 40 42 42 43 42 41 41 40 40 40 39 39 39 38 38 39 38 37 37 37 37 37 37 37 37 37 37 37 37 37 37 37 36 36 36 36 37
47 47 46 46 45 45 44 43 45 43 43 43 42 39 39 38 37 36 37 36 36 36 37 37 38 38 39 40 42 43 42 41 40 40 39 40 43 39 39 38 38 39 38 37 37 37 36 36 36 37 37 37 37 37 37 37 37 37 37 36 37 38 38
46 45 44 44 44 45 45 44 43 44 42 40 40 39 38 38 37 36 35 35 35 36 36 37 37 37 38 39 40 42 43 42 41 40 39 39 39 40 39 38 39 39 38 37 36 36 35 35 37 37 37 36 36 37 37 37 38 38 38 37 37 37 37
46 46 45 45 45 45 44 43 43 42 43 41 40 39 39 38 38 36 35 35 35 36 37 37 37 37 37 38 39 41 43 41 40 41 39 39 38 39 39 39 39 39 38 37 36 35 35 36 37 37 38 37 37 37 37 37 38 38 38 37 37 37 37
44 44 44 44 44 44 44 44 44 45 43 41 40 39 39 38 39 37 36 35 35 37 36 36 37 37 37 38 39 40 41 43 40 39 39 39 39 38 39 40 39 40 40 38 37 36 36 36 36 37 37 38 38 38 37 38 38 38 38 37 36 36 36
45 45 44 43 43 43 43 43 43 43 43 42 41 38 38 37 37 37 36 35 34 35 36 37 37 38 37 37 39 39 41 42 39 39 39 38 37 37 38 39 40 40 41 41 41 40 39 38 37 36 37 38 38 38 37 38 38 38 37 36 36 36 36
42 43 43 43 44 44 43 43 42 42 42 41 39 37 36 36 35 35 35 34 34 35 36 37 38 38 38 38 38 39 41 42 39 39 40 38 38 37 37 38 41 41 42 41 41 39 38 38 39 38 38 38 38 38 38 37 36 37 37 36 35 36 36
43 43 43 42 42 42 42 43 43 43 43 42 40 38 36 35 34 34 34 33 33 35 36 37 38 37 37 38 39 38 40 41 39 38 39 37 37 37 37 37 37 39 42 42 41 38 37 37 37 37 38 40 41 39 38 37 36 37 38 37 36 36 36
41 41 42 41 42 42 43 43 42 42 42 42 42 39 37 36 36 34 34 33 34 35 35 38 36 36 36 37 39 40 40 41 41 37 38 37 37 37 36 37 37 39 39 39 40 36 36 37 36 37 37 38 39 39 38 38 37 37 36 36 36 36 36
40 40 41 41 42 41 41 42 41 42 42 43 42 41 39 37 35 34 34 33 34 34 34 37 36 36 36 36 37 40 41 42 41 36 37 38 37 36 35 36 36 38 37 39 41 35 34 34 37 37 38 39 39 40 37 36 37 39 37 36 36 36 37
39 39 40 41 41 40 40 41 41 41 41 41 41 41 41 39 36 34 34 34 34 34 34 36 35 35 36 36 37 39 39 41 40 37 37 38 37 36 35 34 34 34 34 35 37 35 34 33 33 34 35 36 37 39 38 38 37 37 39 38 37 36 37
38 39 40 40 40 40 40 41 41 41 41 40 40 40 40 39 38 37 35 35 35 33 34 35 35 35 35 36 37 38 36 38 38 38 38 38 37 36 36 36 33 32 31 32 36 36 34 33 33 34 35 35 36 37 36 36 36 37 38 38 37 37 37
39 39 40 40 40 41 41 40 40 41 41 40 40 40 40 41 39 37 37 36 35 32 33 35 35 35 35 35 37 37 34 35 35 36 37 39 37 36 35 34 32 31 31 31 36 35 35 36 34 33 34 34 35 36 36 38 37 38 38 37 37 38 38
39 38 39 39 39 39 39 39 40 40 39 39 38 37 37 37 39 39 38 37 35 33 32 35 35 35 34 35 37 35 33 33 34 34 35 36 38 37 36 34 32 32 32 31 35 34 35 36 33 32 33 34 35 35 34 35 37 36 37 37 37 37 37
38 38 37 38 38 39 39 40 39 40 38 37 36 35 35 36 36 38 38 38 36 33 32 35 35 35 35 35 37 35 32 32 31 33 33 35 37 37 39 41 43 34 33 34 35 35 35 36 32 32 32 33 34 34 33 33 34 35 37 37 37 36 36
37 37 37 38 38 38 38 39 40 39 39 38 37 36 37 36 36 36 36 39 42 35 33 35 35 35 35 35 37 35 33 30 30 31 33 33 35 36 36 39 40 38 36 37 35 35 35 35 33 32 32 33 33 33 32 32 33 34 34 34 34 35 35
37 37 36 37 37 36 37 37 37 38 39 39 38 38 38 37 37 36 38 39 40 36 33 32 34 34 35 35 37 35 35 32 31 32 32 35 34 34 34 34 37 36 35 35 34 34 34 35 33 32 33 32 33 32 32 33 34 35 33 33 33 34 35
38 38 38 38 38 39 38 38 39 38 37 37 37 38 39 39 39 38 38 38 39 37 36 33 33 34 34 35 35 35 33 33 32 32 33 33 33 34 33 33 34 36 35 35 34 34 35 34 34 35 33 32 31 33 34 32 33 36 31 32 33 33 34
39 40 39 39 37 37 38 38 38 38 37 37 37 37 37 38 38 38 39 39 36 36 41 41 34 34 34 34 34 35 33 32 33 33 33 32 34 32 32 33 33 34 34 34 34 35 34 34 34 36 32 32 32 32 33 36 32 30 30 30 30 31 33
39 41 40 39 37 36 38 38 37 37 38 38 39 38 38 38 37 37 38 38 35 33 33 35 36 33 34 34 33 34 34 32 33 35 32 33 33 31 32 32 33 36 34 34 34 35 34 32 34 32 32 32 33 31 34 31 30 29 29 29 30 30 31
39 40 40 39 39 38 38 37 37 38 38 37 36 36 37 38 36 36 37 37 37 35 34 31 35 34 33 34 33 33 33 34 34 34 34 33 34 32 32 32 34 34 34 34 35 34 32 31 31 32 31 32 33 31 31 30 28 29 30 29 28 29 30

ECMWFFLT1_sfc_dewp_114.txt.gz
Dewpoint
62 62 62 61 59 57 56 55 55 55 55 55 54 54 55 56 55 54 54 55 55 56 55 53 54 55 54 54 55 54 54 55 54 53 51 52 51 51 54 52 53 53 53 54 53 52 52 50 50 51 51 51 51 52 52 50 49 49 50 50 51 54 55
63 62 61 60 57 56 55 55 54 54 54 54 54 54 54 55 56 54 53 53 54 55 55 53 53 54 53 52 52 52 52 53 54 53 51 51 51 51 51 50 50 51 51 52 50 50 50 49 48 48 48 49 48 50 50 50 48 49 48 49 50 50 50
61 61 60 58 56 55 54 54 54 53 53 53 53 53 53 53 53 53 53 52 53 54 55 52 52 52 52 52 51 51 52 52 52 52 51 50 50 50 50 49 48 48 48 48 48 48 48 48 47 47 47 47 46 47 49 48 47 48 46 48 47 47 49
60 59 58 56 55 54 53 53 52 52 52 53 53 53 53 52 52 53 52 52 52 54 53 52 51 51 51 51 51 50 51 51 51 49 50 50 49 48 49 49 48 47 47 46 46 46 46 46 46 46 46 46 45 45 45 46 46 45 44 45 45 44 45
59 59 57 55 53 52 52 52 52 52 51 52 52 51 51 50 51 50 52 50 52 51 50 51 52 50 50 50 50 50 50 50 50 50 48 48 48 48 48 48 47 47 47 46 46 46 45 45 44 43 43 43 43 43 44 43 44 41 43 41 42 42 42
56 55 55 54 53 52 52 51 51 51 51 51 51 50 50 50 50 49 49 48 49 50 50 50 51 50 49 49 49 49 48 48 48 48 47 47 48 48 46 46 45 45 45 45 44 43 43 43 41 40 41 41 41 41 41 41 40 40 41 39 40 40 40
54 54 53 53 52 52 51 51 50 50 50 50 50 50 50 49 48 48 48 47 48 49 50 50 49 50 49 48 48 48 47 48 48 46 46 46 46 45 45 43 43 43 43 43 42 42 41 41 40 40 40 40 40 39 39 38 39 38 38 38 39 39 39
53 53 53 53 52 51 51 50 50 51 50 50 49 50 49 48 47 47 47 46 47 47 48 48 48 48 48 47 48 48 49 47 46 45 44 44 44 43 42 42 43 42 42 42 41 41 41 41 40 40 39 38 37 37 37 37 37 37 37 38 38 38 39
54 53 53 53 52 51 50 50 51 51 51 50 49 48 48 47 46 45 45 45 46 47 47 47 47 47 47 46 45 45 45 48 44 43 43 42 42 42 41 41 40 40 41 40 40 40 39 40 40 40 39 38 36 35 35 35 35 35 37 36 37 38 38
51 51 51 51 51 51 50 50 51 51 51 49 49 48 47 47 46 44 43 44 44 45 46 47 47 46 45 45 44 44 43 44 45 43 43 42 41 41 41 41 40 40 40 40 39 40 40 39 39 39 39 38 38 36 34 35 35 35 36 37 36 37 38
51 51 51 50 50 50 50 51 51 50 49 49 47 45 43 42 43 47 42 42 43 43 45 45 46 45 44 44 44 44 43 43 43 43 43 41 41 41 41 40 39 39 40 39 39 39 39 39 39 38 39 38 38 36 35 35 35 36 36 37 37 36 37
51 51 51 50 50 50 50 50 49 48 46 45 44 41 41 41 41 41 41 41 42 42 43 44 45 45 44 43 43 42 43 42 42 42 42 42 41 40 39 39 39 38 39 39 38 38 38 39 38 38 38 38 39 37 36 36 35 36 37 36 36 37 37
51 50 50 50 50 50 49 48 45 43 43 43 41 40 40 40 40 40 40 40 41 41 41 42 43 44 44 43 42 42 41 41 41 41 41 41 41 40 39 38 38 38 38 38 37 38 37 38 38 37 38 38 38 37 37 35 35 34 36 36 36 36 37
50 50 49 49 48 48 48 47 45 44 43 41 40 39 39 39 39 39 39 41 39 40 40 41 42 43 43 43 43 42 41 40 40 41 42 40 40 39 40 38 38 38 38 37 37 37 37 37 37 37 38 38 37 36 35 35 34 34 35 37 37 36 37
50 49 48 48 47 46 45 45 44 42 41 40 39 39 38 39 38 38 38 38 39 39 40 40 41 42 42 42 43 43 41 40 40 40 40 39 39 40 39 38 38 38 38 37 36 36 36 37 37 37 37 37 36 36 36 36 36 35 34 36 37 37 37
48 47 47 45 44 44 44 43 42 40 39 39 39 38 38 37 38 37 37 38 38 38 39 39 40 41 41 42 42 41 41 40 40 39 39 39 38 39 38 39 38 38 38 36 36 35 36 37 37 37 37 37 36 36 37 37 37 36 36 36 37 37 37
47 46 45 44 44 44 43 42 41 39 39 38 37 38 37 36 37 36 37 37 37 37 38 38 39 39 40 41 42 41 40 40 40 39 39 38 38 38 38 38 38 38 37 35 35 35 36 37 37 38 37 37 37 37 38 38 38 37 37 37 37 37 37
45 45 45 45 44 44 43 42 41 39 38 37 37 37 37 36 35 36 36 36 37 37 37 37 38 38 39 40 42 42 40 39 39 40 40 41 43 38 39 38 38 37 36 34 35 34 35 36 37 38 37 37 38 38 38 38 38 38 37 37 37 38 37
44 44 44 43 43 43 42 41 40 39 38 37 37 36 35 35 36 35 35 36 36 37 37 37 37 37 38 39 41 42 41 40 39 39 39 39 39 40 39 38 38 37 36 35 35 35 35 35 36 37 37 37 37 38 38 38 38 37 37 37 37 36 35
44 44 44 43 43 42 41 40 39 39 39 38 37 36 35 35 36 34 35 36 36 37 37 37 37 37 38 39 40 41 41 39 39 39 38 38 39 39 39 39 39 38 37 36 35 35 35 34 36 36 39 37 38 38 37 37 37 37 36 36 35 35 35
44 44 44 43 42 42 41 41 40 40 39 38 38 37 36 35 35 35 35 36 37 39 37 37 37 37 38 38 39 39 40 40 39 38 38 38 39 39 39 39 39 39 38 37 37 35 35 35 35 35 35 37 38 38 37 37 37 36 35 35 35 34 35
44 44 43 43 43 43 43 42 40 40 39 39 39 37 36 35 34 34 34 35 35 36 37 37 38 37 37 38 37 38 39 40 39 38 37 37 37 38 38 39 39 39 41 40 42 40 39 38 37 35 35 36 38 38 37 37 36 36 35 35 34 34 34
43 43 42 42 42 42 41 40 39 38 37 36 35 36 35 34 33 33 33 34 35 36 36 37 39 38 39 38 37 38 39 40 39 39 38 37 37 37 37 36 42 38 41 44 43 40 38 38 38 38 37 36 36 37 37 37 36 35 35 35 33 33 33
43 43 43 42 42 41 40 39 37 36 35 35 35 35 33 33 33 33 33 33 34 35 36 37 38 37 38 40 39 38 38 40 39 39 38 36 35 37 36 37 36 38 39 42 42 39 37 37 37 37 37 38 39 38 37 37 36 36 36 35 34 34 33
42 42 42 41 42 41 40 39 38 36 35 34 35 34 33 33 33 33 33 33 34 35 35 38 37 37 37 38 41 40 39 39 39 38 37 36 35 36 34 34 36 37 37 39 39 36 36 37 36 36 36 37 37 37 38 38 37 35 35 34 34 34 34
41 41 41 42 42 41 40 40 39 37 36 36 34 33 33 33 33 33 33 33 33 34 34 37 37 37 37 37 38 39 38 39 38 37 37 36 35 34 34 35 34 34 34 38 41 35 33 33 36 36 37 37 37 37 36 36 37 38 37 36 35 34 34
41 41 41 41 41 41 41 41 41 40 39 37 34 34 33 33 33 33 33 33 33 34 34 37 36 37 37 36 36 37 37 37 38 38 37 36 35 34 33 33 32 32 32 33 35 35 34 33 33 33 33 32 33 35 36 36 36 36 37 36 35 34 34
41 41 41 41 41 41 41 41 41 40 39 37 35 34 34 34 35 35 33 33 33 33 34 36 36 36 36 36 36 36 36 36 37 37 37 37 36 35 34 33 33 32 32 33 36 37 35 34 34 33 32 32 32 32 34 34 34 35 35 35 34 34 34
41 40 40 40 40 40 40 40 40 40 40 39 38 37 36 36 35 34 34 32 31 31 32 35 35 36 36 36 36 35 35 34 35 35 35 36 37 36 36 34 35 34 33 33 37 36 36 37 34 32 31 31 31 32 33 36 36 36 36 34 34 34 34
40 40 40 40 40 40 40 40 39 40 39 39 38 37 36 36 36 35 34 32 31 29 31 34 35 35 36 36 35 33 33 34 34 34 34 35 35 37 36 38 38 35 34 33 36 35 35 37 33 31 31 31 31 31 31 32 35 34 35 35 35 35 34
40 40 39 39 40 40 39 39 39 39 37 37 37 37 37 37 36 36 34 31 31 30 29 34 35 35 36 36 36 32 32 32 32 33 33 33 35 34 36 40 41 36 34 34 35 35 35 37 32 32 31 31 30 29 29 31 32 33 34 34 34 33 34
39 39 39 39 39 39 39 39 39 37 36 36 36 37 38 37 36 35 35 33 38 32 30 34 35 35 35 36 36 32 32 31 31 31 32 33 33 34 33 36 38 37 36 36 34 35 35 36 32 32 32 31 29 28 28 30 31 31 30 30 30 31 31
39 39 39 39 39 39 39 39 37 36 35 35 35 35 36 35 35 36 37 36 36 32 30 30 34 35 35 36 36 34 32 31 32 30 31 35 34 32 32 32 35 35 34 34 34 34 35 34 33 32 31 30 29 27 30 30 32 32 30 30 30 30 30
38 38 38 38 38 39 39 38 37 36 34 34 34 35 35 35 36 36 37 35 33 31 32 30 32 35 35 35 35 34 30 31 30 30 30 32 31 31 31 31 32 35 34 35 35 35 35 34 34 34 30 30 30 32 32 30 31 34 29 31 30 30 30
38 38 38 38 38 38 38 38 37 36 36 35 36 36 36 36 36 35 35 35 33 33 36 38 31 34 35 35 35 35 32 31 32 31 32 30 32 32 31 31 32 34 35 34 35 35 35 34 33 33 31 33 33 32 32 33 30 29 29 29 29 29 29
38 39 38 38 37 37 38 38 38 37 37 37 37 37 37 37 36 36 34 33 33 33 35 36 36 33 35 35 35 35 34 33 34 35 30 30 30 32 32 32 34 36 34 35 35 34 34 33 32 31 33 32 33 32 33 31 30 28 28 28 28 28 28
38 38 38 37 37 37 37 37 37 37 37 37 37 36 36 37 36 36 34 31 31 31 31 31 34 35 33 34 34 34 34 34 35 33 33 31 31 32 32 32 34 34 34 35 34 34 33 32 31 32 32 32 33 32 30 30 28 28 28 27 27 27 27

ECMWFFLT1_sfc_dewp_117.txt.gz
Dewpoint
61 59 58 56 56 56 54 54 54 54 54 54 54 54 55 55 54 53 54 54 54 54 54 52 52 52 52 53 53 53 53 52 51 49 49 49 48 48 51 49 50 49 49 48 48 48 49 47 46 47 48 46 46 48 48 44 43 46 44 46 44 43 43
60 58 57 56 55 55 54 54 53 53 53 53 53 53 52 53 54 52 53 53 53 53 54 52 51 51 51 51 50 50 50 50 51 50 49 48 48 48 47 47 47 47 47 46 46 46 47 44 44 43 43 42 42 44 46 43 42 44 43 43 43 41 43
59 57 56 55 54 54 53 53 53 52 52 52 51 51 51 52 52 52 51 52 52 53 52 50 50 50 50 50 50 50 49 48 49 49 48 47 47 47 46 46 45 45 44 43 43 43 44 45 42 41 41 40 37 39 44 41 41 42 41 40 40 39 40
58 56 55 54 53 52 52 52 52 51 51 50 51 50 50 50 51 52 51 51 52 53 51 49 49 49 49 49 49 48 48 48 47 47 47 46 45 45 44 44 44 43 43 42 42 42 42 41 40 39 39 40 39 39 41 40 41 40 40 39 39 39 39
57 55 54 53 52 52 52 51 51 50 50 50 49 48 48 49 49 49 51 50 50 49 49 49 49 49 49 48 47 47 46 46 46 46 45 44 43 42 42 42 42 42 42 41 41 41 41 40 39 38 38 39 39 40 39 39 40 38 40 37 38 38 38
57 54 53 52 52 51 51 51 50 49 48 48 47 47 47 48 49 48 48 48 48 49 49 48 48 48 48 47 46 45 45 44 43 43 42 42 42 41 41 41 41 40 40 41 40 40 40 40 39 37 37 38 37 37 37 37 37 37 38 37 37 38 37
55 53 53 52 51 51 51 50 49 48 48 47 47 47 47 47 47 48 47 47 48 48 49 48 48 48 47 46 45 44 43 43 42 42 41 41 41 41 41 39 39 39 39 40 39 39 39 39 38 37 37 36 36 36 37 35 36 35 36 37 37 37 37
54 53 52 52 51 51 50 49 48 48 47 47 47 47 47 46 47 47 47 46 47 46 46 46 46 45 45 45 45 44 43 42 41 42 40 40 40 39 39 39 40 39 39 39 39 39 39 39 38 38 37 35 34 34 34 35 36 34 35 36 36 37 36
54 53 52 52 51 51 50 49 48 48 48 47 46 45 45 45 44 45 45 45 46 46 46 45 45 44 44 43 43 43 42 44 41 40 39 39 39 39 39 39 38 39 39 39 40 39 39 39 38 38 38 37 36 34 33 33 33 34 35 35 35 37 36
52 51 51 51 51 51 50 49 48 48 47 46 46 46 44 44 44 44 44 44 45 45 44 44 44 43 43 43 42 42 41 41 41 39 39 39 39 38 38 39 39 39 39 39 39 39 39 38 38 38 38 38 37 35 33 33 34 34 34 35 34 35 35
52 51 51 50 51 50 49 48 47 45 44 44 44 44 42 42 43 46 43 43 44 44 44 44 43 43 43 42 42 42 42 41 40 40 40 39 39 39 40 38 38 37 38 38 38 38 39 38 38 38 38 38 38 35 34 33 33 34 34 35 35 34 35
51 51 51 51 50 49 48 46 44 43 42 43 43 41 41 41 42 42 42 42 42 43 43 44 43 42 42 42 42 41 41 40 40 40 40 40 40 39 38 37 37 37 37 37 37 37 38 39 38 38 38 39 37 36 35 34 32 34 35 34 34 35 36
51 50 50 50 49 47 44 42 41 41 41 42 40 40 40 41 41 41 41 41 42 42 42 43 43 42 41 41 41 40 40 40 39 39 39 40 39 38 37 37 37 36 37 36 36 37 37 38 39 38 38 38 37 37 37 35 34 33 35 35 35 36 36
50 50 50 49 46 44 43 42 41 40 40 39 39 39 40 40 40 41 41 42 41 41 41 42 42 42 41 40 40 40 40 40 39 39 40 39 39 38 38 36 37 37 37 36 36 37 37 37 38 38 39 37 36 37 37 36 35 35 36 36 36 36 37
50 49 48 46 45 43 42 41 40 39 38 39 39 39 39 40 40 40 40 40 40 40 41 41 42 42 41 40 40 40 40 39 38 38 38 38 38 38 37 36 36 37 37 35 36 36 37 37 37 37 37 38 37 37 37 37 36 36 35 36 36 37 37
48 47 45 44 43 41 40 39 39 38 38 38 39 38 38 38 39 39 39 39 39 40 40 41 41 41 41 40 40 40 40 38 38 38 37 37 37 37 36 37 36 36 37 34 35 35 36 36 38 37 37 38 37 37 37 38 37 36 35 35 36 36 36
45 44 43 43 41 40 39 39 39 37 37 37 37 38 37 38 38 38 38 38 38 39 39 40 40 41 40 40 39 39 39 38 38 38 38 38 38 37 36 36 35 36 36 34 34 34 35 35 36 37 37 37 38 37 38 38 38 37 36 36 35 35 36
44 44 43 41 40 39 38 38 38 36 36 36 36 37 38 38 37 37 38 37 38 38 38 39 40 40 41 40 39 39 39 39 39 39 39 39 42 37 38 35 36 35 35 34 34 34 34 34 35 36 36 36 37 37 38 38 38 37 37 36 35 36 35
44 43 42 41 39 39 38 37 37 37 36 35 36 36 36 37 38 36 37 37 37 37 38 38 39 40 40 40 40 39 39 39 39 39 38 38 38 39 37 36 36 36 35 34 34 34 34 34 34 35 35 35 35 36 37 37 38 37 36 36 35 34 34
44 43 42 41 40 38 37 37 36 36 36 35 35 35 35 36 37 36 36 37 37 37 37 38 38 38 39 39 39 38 38 38 38 38 37 38 38 38 37 38 39 37 36 35 35 35 35 34 35 35 38 35 35 36 36 36 37 36 36 35 34 34 34
43 42 41 40 39 38 38 37 37 37 36 35 35 35 35 36 37 36 37 37 38 39 37 37 37 37 38 39 40 38 38 38 38 37 37 37 38 38 38 38 37 37 37 37 37 36 35 35 35 34 34 35 35 35 35 36 36 36 35 34 34 33 33
43 43 41 40 39 39 38 38 38 37 37 37 37 35 35 35 35 35 35 36 36 37 38 38 37 37 38 38 38 39 38 38 37 37 36 36 36 36 36 36 37 38 41 40 43 42 40 39 37 35 34 34 36 36 35 35 35 35 34 34 33 33 32
42 42 41 40 40 39 38 38 37 36 35 35 35 35 34 35 34 34 35 35 36 36 37 37 40 41 43 39 37 39 39 38 37 37 37 35 34 36 36 35 40 40 40 41 43 41 38 38 39 38 36 35 35 35 35 34 34 34 34 33 32 32 32
42 42 41 41 40 39 38 37 35 34 34 34 34 36 33 33 34 34 34 34 35 36 36 37 39 38 40 41 39 39 39 38 37 36 35 34 33 37 36 35 35 39 40 39 41 40 38 37 37 37 37 38 38 36 34 34 33 34 34 33 33 32 31
42 42 41 40 39 37 35 34 33 33 33 33 34 33 33 33 33 34 34 34 35 35 36 39 38 38 39 40 41 41 39 39 38 36 35 34 34 36 34 34 34 35 35 38 40 37 37 37 37 37 37 36 36 36 36 35 34 33 33 33 32 32 31
42 42 41 39 38 35 33 33 33 32 33 34 33 32 32 33 33 33 33 34 34 35 35 38 37 38 38 38 39 40 38 38 37 36 35 34 34 33 33 35 35 35 33 39 40 35 35 35 37 37 37 36 35 36 34 34 35 36 35 34 32 31 30
41 41 40 39 37 35 33 33 33 34 34 34 32 32 32 32 32 33 33 34 34 34 34 37 37 37 37 37 37 38 37 37 36 35 35 34 34 34 33 33 33 35 35 34 34 36 35 34 34 33 32 31 31 33 34 34 34 35 36 34 32 31 31
41 41 40 39 37 36 35 35 34 34 33 32 32 32 32 32 33 34 32 32 33 33 34 37 36 36 36 36 36 37 37 37 36 35 35 36 35 34 34 34 33 35 35 34 35 37 35 35 34 32 31 31 30 31 31 31 31 32 34 33 32 32 32
42 41 41 40 39 38 37 36 34 35 35 34 33 34 33 33 32 31 31 31 31 31 32 36 36 36 36 36 36 36 35 35 34 34 34 34 34 35 35 34 35 36 35 33 36 36 36 37 32 31 31 31 30 30 30 33 34 35 35 33 32 32 32
42 41 41 40 39 39 38 37 37 37 35 35 34 33 32 32 32 31 32 31 30 29 30 35 36 36 35 35 35 34 34 34 33 32 32 33 33 34 34 35 37 36 34 33 36 35 35 38 31 30 30 30 30 29 29 30 34 34 34 34 34 34 34
40 40 40 39 39 39 39 38 38 38 35 35 34 34 34 33 31 32 30 29 30 30 29 34 36 36 36 36 35 32 32 32 31 32 31 32 33 32 34 38 39 35 34 34 36 35 35 36 31 31 30 30 28 27 27 29 31 32 33 33 33 33 33
40 40 40 40 39 39 39 39 39 38 36 36 35 35 36 33 32 30 30 31 38 31 29 34 35 36 36 36 35 31 32 31 31 29 30 31 32 32 32 35 37 37 36 36 35 35 35 35 30 30 30 29 28 27 27 29 30 30 29 29 28 30 30
40 40 39 39 39 39 39 39 38 37 36 36 36 35 35 34 32 31 32 33 34 30 29 29 34 36 36 36 36 34 31 31 31 29 29 35 33 31 31 31 35 35 34 35 35 35 34 34 31 30 29 29 29 27 29 30 32 32 29 29 28 29 29
40 40 40 39 40 40 39 37 37 36 36 36 35 34 34 33 33 32 33 32 30 29 30 29 32 35 36 36 36 34 29 30 28 29 29 31 28 29 31 31 32 35 35 35 35 35 34 34 34 32 29 29 29 33 33 29 30 34 28 30 29 29 28
40 40 40 40 39 38 37 37 36 36 35 35 35 34 33 35 34 33 33 32 30 29 35 38 30 34 35 35 35 35 32 32 32 30 31 28 28 29 29 31 32 34 35 35 35 34 34 33 33 33 31 33 33 32 31 33 30 29 28 28 27 27 27
40 40 40 40 39 38 37 36 36 35 34 34 34 34 33 34 34 33 33 32 32 31 33 35 37 33 35 35 35 35 35 33 34 37 28 28 28 29 29 31 34 37 35 35 34 34 33 33 32 31 32 32 33 32 32 29 30 27 27 26 27 26 26
39 39 39 39 38 37 37 36 35 34 34 34 34 34 33 34 33 34 33 32 31 30 30 30 34 36 34 35 35 35 35 34 35 34 33 29 29 30 31 30 34 35 35 35 34 33 32 33 31 32 32 32 32 32 29 28 27 27 28 26 25 25 25

ECMWFFLT1_sfc_dewp_123.txt.gz
Dewpoint
60 58 59 58 59 59 57 56 56 56 56 56 57 56 57 57 57 57 58 58 56 55 54 55 55 54 54 54 55 54 53 53 53 52 50 50 48 48 50 48 46 45 46 49 49 43 36 36 34 42 42 41 42 42 42 41 39 39 41 42 38 39 39
60 59 59 59 58 57 55 55 55 54 55 55 55 55 56 56 56 56 56 56 55 54 53 54 54 54 54 53 53 52 52 51 51 51 48 46 47 46 45 46 45 42 43 45 45 41 35 35 31 36 39 43 44 41 42 43 40 39 39 39 39 40 41
59 58 58 58 57 57 55 54 54 54 54 54 55 55 55 55 55 55 55 55 54 54 53 53 53 52 52 51 51 51 51 50 49 49 47 46 46 46 46 46 44 44 43 41 41 41 41 41 34 33 38 38 37 39 41 40 41 37 36 39 40 39 38
58 57 57 57 57 55 53 53 53 53 54 54 55 55 55 55 55 55 54 54 54 54 52 52 51 50 50 50 50 50 49 48 47 47 47 47 45 45 44 43 42 41 40 39 40 40 40 39 36 35 36 37 36 35 38 38 38 35 33 36 37 38 38
58 57 56 55 55 54 53 52 52 52 52 53 54 54 54 54 54 53 53 53 53 53 51 51 50 49 49 48 48 47 47 47 47 46 46 45 45 43 44 43 42 42 42 41 41 40 39 38 39 36 33 37 35 32 34 40 35 35 33 32 32 35 35
59 58 57 56 55 53 52 51 51 51 52 52 52 52 53 54 53 53 53 52 51 51 50 48 48 48 47 47 47 46 46 45 45 45 44 45 45 43 42 43 41 42 42 42 42 41 41 41 38 35 35 37 34 33 32 34 32 32 31 31 31 30 31
59 58 57 55 54 53 52 52 52 51 51 52 52 52 53 53 53 53 53 52 50 49 48 48 47 47 47 44 45 44 44 44 45 45 45 45 45 45 44 42 43 42 42 43 42 41 40 39 36 38 38 36 39 32 33 29 30 27 28 29 31 32 32
58 58 56 55 53 52 52 52 51 51 51 51 51 52 52 52 52 52 52 51 50 49 48 47 46 46 45 44 43 45 44 44 45 44 44 45 44 45 45 43 42 42 42 41 41 40 40 40 39 39 37 34 33 34 34 32 30 30 30 29 30 31 31
58 56 54 53 53 52 51 51 51 51 51 51 51 51 52 52 51 51 50 49 48 47 46 45 45 44 44 43 43 44 43 44 44 44 44 44 44 45 44 43 41 41 42 41 41 41 40 40 40 39 37 37 33 29 33 32 32 28 25 27 29 29 29
56 55 54 53 52 52 51 50 50 49 50 50 50 50 50 50 50 49 48 48 48 46 45 45 44 44 44 43 43 43 43 43 43 43 43 43 43 43 43 43 41 40 41 42 42 41 41 41 40 39 37 37 36 33 31 30 31 32 27 28 27 27 29
55 54 53 51 51 50 50 50 50 49 49 49 49 50 50 50 49 49 48 47 47 46 45 43 43 43 44 42 43 42 42 43 43 42 43 43 43 43 43 42 41 40 42 42 41 42 41 41 39 38 38 37 37 33 33 31 32 33 32 33 29 27 30
53 52 52 51 51 49 48 49 49 49 49 49 49 50 49 49 48 48 47 46 45 45 44 44 43 43 42 42 42 42 43 42 41 42 43 43 42 42 41 41 41 40 41 42 41 40 41 39 38 36 36 38 38 38 36 34 31 32 34 33 34 33 31
52 51 51 50 49 48 47 47 48 48 49 49 49 49 47 47 47 47 46 45 44 43 42 42 42 42 42 42 41 40 42 41 40 39 40 41 41 40 39 38 39 39 39 37 38 39 37 39 40 36 36 36 36 39 37 33 33 31 33 34 34 33 31
52 51 50 49 49 48 47 47 47 47 47 48 48 48 47 46 45 45 44 43 42 42 42 42 42 41 41 41 40 40 39 38 36 37 38 39 38 38 36 35 36 38 38 37 37 36 35 35 37 37 36 35 33 36 36 35 32 31 34 35 35 33 36
51 50 50 49 48 47 46 47 47 46 47 47 47 46 45 47 45 45 43 42 41 39 39 40 40 40 39 40 41 41 40 38 37 37 37 36 37 39 39 35 35 38 39 38 38 32 32 32 30 31 32 34 31 34 37 35 32 32 33 34 34 35 33
50 49 48 47 46 45 46 46 46 46 46 47 47 46 46 46 45 44 43 42 40 39 38 39 41 40 39 38 37 39 39 37 37 37 36 35 35 37 37 37 36 39 40 38 39 38 39 36 33 31 33 32 35 36 34 35 36 33 33 33 34 31 32
48 47 47 47 46 45 45 45 45 45 45 46 45 46 45 44 44 44 43 41 40 39 39 39 39 37 36 36 36 36 36 37 36 36 35 34 35 36 36 36 37 38 39 37 37 36 36 37 36 34 35 35 34 34 36 37 36 36 34 33 34 30 33
47 46 46 45 45 44 44 44 45 44 45 45 45 45 45 44 44 43 44 41 39 38 38 37 37 38 39 38 36 37 36 36 37 37 37 37 38 36 36 37 36 37 38 37 37 35 34 37 32 35 36 33 33 34 35 35 36 36 35 34 34 34 34
46 45 44 44 43 43 44 44 44 45 44 44 45 44 44 43 43 42 41 40 39 37 36 37 36 35 36 38 38 38 38 38 37 36 37 37 36 38 37 36 38 39 38 38 38 38 38 37 35 35 35 35 32 35 36 35 35 36 35 34 34 33 34
45 44 43 43 43 42 42 44 44 44 44 44 44 44 43 43 44 42 41 41 39 38 37 37 38 38 36 36 37 37 39 38 38 39 37 36 36 36 36 37 40 40 38 39 39 39 39 39 39 38 37 37 34 35 34 34 34 35 34 34 33 33 32
43 42 42 41 41 41 42 43 44 44 44 44 43 42 42 43 44 42 42 41 40 40 40 38 37 37 36 38 38 38 38 38 37 38 38 36 36 35 36 38 38 38 39 38 39 39 40 39 39 37 36 37 35 34 34 34 34 32 32 33 31 30 32
42 41 40 40 41 41 42 43 44 44 44 44 44 43 43 43 42 42 42 43 41 42 41 40 39 38 38 37 39 38 38 37 37 36 35 35 35 35 35 38 39 39 42 43 41 40 39 39 39 36 37 37 35 34 34 33 33 31 31 32 31 33 31
40 40 40 40 40 41 41 43 43 43 43 43 43 43 42 43 42 42 42 41 42 44 43 43 44 42 41 38 38 39 39 38 35 35 35 35 35 35 36 37 41 42 43 42 40 39 39 39 39 39 38 37 33 33 34 34 32 32 33 31 31 31 31
40 39 40 40 41 40 40 42 42 42 42 42 43 43 43 42 42 42 41 42 42 44 44 42 41 39 39 41 40 39 37 36 36 35 35 35 35 35 35 35 38 40 40 40 39 40 39 38 38 38 38 38 37 36 34 33 32 34 32 32 33 31 31
39 39 39 39 39 39 40 40 41 41 42 43 43 43 43 42 42 43 43 42 43 43 44 43 38 39 39 39 41 38 37 37 37 36 35 34 34 35 35 36 38 40 39 40 38 38 39 39 38 38 37 37 36 36 35 35 33 33 34 33 33 33 32
38 38 38 38 39 39 39 39 40 40 41 42 42 41 41 42 42 43 43 42 42 43 43 40 39 39 39 38 39 40 36 37 37 37 36 36 36 36 36 35 35 38 38 40 38 38 37 37 39 38 38 37 35 36 34 34 34 36 36 36 35 35 33
38 38 38 38 38 38 38 39 41 42 41 40 40 40 40 41 41 42 42 43 43 43 44 40 39 39 39 38 38 38 37 39 38 38 38 38 38 37 37 36 35 35 38 40 40 39 38 38 36 35 33 32 32 34 36 34 34 35 35 37 37 35 36
38 37 37 37 38 38 39 39 39 41 41 42 41 39 40 40 41 42 43 43 42 44 45 39 38 39 38 38 37 38 39 40 39 39 40 40 40 39 39 40 39 38 38 38 39 38 38 37 37 34 32 32 31 33 35 33 34 35 35 37 37 36 36
38 37 36 37 39 38 39 39 39 41 41 42 41 41 40 40 41 41 42 43 43 43 43 37 37 38 38 38 38 40 39 39 38 38 38 39 37 37 37 38 39 38 38 38 38 36 37 38 34 31 30 31 31 33 34 37 34 35 37 36 36 36 35
37 36 36 37 38 38 38 39 39 40 40 39 39 38 39 40 40 40 41 42 42 42 41 38 37 37 37 37 39 40 40 37 37 38 38 38 36 37 39 39 39 37 38 38 38 35 35 38 33 31 30 31 32 31 30 33 35 35 35 35 35 34 34
37 36 37 37 38 40 41 38 39 39 38 38 38 38 38 38 39 39 40 40 41 41 42 39 36 37 37 37 40 41 38 37 38 37 37 37 36 36 39 41 40 38 39 37 36 35 35 39 32 31 31 30 30 29 29 31 34 35 35 35 35 35 34
36 36 37 40 39 38 37 37 38 37 37 37 38 38 37 37 38 38 39 41 40 41 41 39 36 36 36 37 39 41 37 36 37 37 34 33 35 34 37 38 38 38 38 39 35 35 34 36 32 33 32 32 28 28 29 33 33 32 32 34 35 35 36
41 41 38 38 37 37 37 37 38 37 37 36 36 36 37 37 37 36 38 40 40 41 40 40 38 36 36 36 37 40 38 36 36 36 34 31 32 33 35 37 39 35 35 35 35 35 35 35 34 33 32 30 30 28 30 33 34 33 33 33 34 35 36
40 39 37 37 37 38 36 37 37 37 37 37 37 37 38 38 37 38 38 38 37 39 40 39 39 36 36 36 36 37 38 37 36 34 31 30 29 30 29 30 33 36 35 35 35 35 35 34 34 35 34 30 32 34 33 33 33 35 34 34 33 30 29
41 40 39 38 39 39 40 39 39 37 36 37 38 37 37 36 36 36 36 35 36 36 38 39 38 37 36 36 35 35 38 38 36 33 32 30 28 30 31 32 33 37 35 35 35 35 35 34 33 34 35 33 33 33 34 33 33 31 30 29 26 25 26
42 42 41 40 39 38 38 38 38 37 37 37 37 36 36 36 36 34 33 33 35 37 38 36 37 38 36 35 35 35 36 36 33 43 32 30 31 32 35 37 37 37 35 35 35 35 35 34 34 34 33 33 33 33 34 32 31 33 30 29 29 28 27
43 43 41 40 38 38 37 37 36 36 35 34 33 33 34 34 33 32 32 31 34 34 36 36 36 36 37 35 35 35 35 35 36 37 36 32 33 35 35 38 38 35 35 35 35 35 34 34 32 33 33 33 33 34 32 32 31 32 31 28 27 27 27